{"data":{"norad_id":68521,"intl_designator":"2026-068P","name":"STARLINK-36347","alt_names":[],"object_type":"PAYLOAD","status":"ACTIVE","operator":null,"country":"US","launch_date":"2026-03-30","launch_site_code":"AFETR","launch_vehicle":null,"mission":null,"orbit_class":"UNKNOWN","rcs_meters":null,"size_class":null,"mass_kg":null,"dimensions":null,"purposes":["comms"],"wikipedia_slug":null,"has_3d_model":false,"image_url":null,"decayed_at":null,"tle_current":{"epoch":"2026-09-19T18:24:45.960768Z","epoch_age_seconds":111380,"freshness":"FRESH","line1":"1 68521U 26068P   26262.76719862  .00010018  00000+0  30720-3 0  9992","line2":"2 68521  53.1607 305.3464 0000332 103.1403 256.9636 15.34400953 26695","mean_motion":15.34400953,"eccentricity":3.32e-5,"inclination_deg":53.1607,"raan_deg":305.3464,"arg_perigee_deg":103.1403,"mean_anomaly_deg":256.9636,"bstar":0.0003072,"rev_number":2669,"period_min":93.847699793497,"perigee_km":462.4732918898,"apogee_km":462.92752349367,"semimajor_km":6840.8374076917,"source":"CELESTRAK","updated_at":"2026-09-20T09:00:43.904562Z"}}}